Location: Newark
(46.7000°N, 60.6000°W)
Time: 01:23:55
(UTC+00:00)

Transit 2A Rocket - All Passes

Search period start: 27 October 2020 00:00
Search period end: 06 November 2020 00:00
Orbit: 586 x 916 km, 66.7° (Epoch: 26 October)

Date Brightness Start Highest point End Pass type
(mag) Time Alt. Az. Time Alt. Az. Time Alt. Az.
27 Oct - 00:15:28 10° WNW 00:18:19 15° WSW 00:21:04 10° SW visible
27 Oct - 13:07:23 10° S 13:12:53 36° ESE 13:18:16 10° NE daylight
27 Oct - 14:49:31 10° SW 14:55:26 49° NW 15:01:08 10° NNE daylight
27 Oct - 16:35:52 10° WNW 16:39:26 16° NNW 16:42:55 10° N daylight
27 Oct - 20:06:50 10° N 20:09:52 15° NNE 20:12:46 10° ENE daylight
27 Oct - 21:48:40 10° NNW 21:53:53 49° NE 21:58:36 10° SE visible
27 Oct - 23:31:54 10° NW 23:36:08 26° WSW 23:40:04 10° SSW visible
28 Oct - 12:25:55 10° SSE 12:30:33 23° ESE 12:35:07 10° ENE daylight
28 Oct - 14:06:37 10° SW 14:12:44 73° NW 14:18:37 10° NNE daylight
28 Oct - 15:51:52 10° W 15:56:19 21° NNW 16:00:36 10° NNE daylight
28 Oct - 19:24:39 10° N 19:26:38 12° NNE 19:28:33 10° NE daylight
28 Oct - 21:06:13 10° NNW 21:11:04 33° NE 21:15:30 10° ESE daylight
28 Oct - 22:48:52 10° NW 22:53:49 44° WSW 22:58:18 10° S visible
29 Oct - 11:45:22 10° SE 11:48:20 14° ESE 11:51:17 10° ENE daylight
29 Oct - 13:24:01 10° SSW 13:30:07 76° ESE 13:36:01 10° NE daylight
29 Oct - 15:08:11 10° W 15:13:19 28° NW 15:18:15 10° NNE daylight
29 Oct - 16:56:15 10° NNW 16:57:56 11° NNW 16:59:35 10° N daylight
29 Oct - 20:23:49 10° NNW 20:28:07 23° NE 20:32:06 10° E daylight
29 Oct - 22:06:06 10° NW 22:11:22 76° WSW 22:16:06 10° SSE visible
30 Oct - 12:41:46 10° S 12:47:37 49° ESE 12:53:17 10° NE daylight
30 Oct - 14:24:45 10° WSW 14:30:25 39° NW 14:35:51 10° NNE daylight
30 Oct - 16:11:46 10° NW 16:14:39 14° NNW 16:17:28 10° N daylight
30 Oct - 19:41:30 10° NNW 19:45:03 17° NNE 19:48:24 10° ENE daylight
30 Oct - 21:23:29 10° NNW 21:28:46 67° NE 21:33:31 10° SE visible
30 Oct - 23:07:17 10° WNW 23:10:41 18° WSW 23:13:54 10° SSW visible
31 Oct - 11:59:57 10° S 12:05:13 31° ESE 12:10:20 10° NE daylight
31 Oct - 13:41:38 10° SW 13:47:38 56° NW 13:53:23 10° NNE daylight
31 Oct - 15:27:37 10° WNW 15:31:28 17° NNW 15:35:13 10° N daylight
31 Oct - 18:59:16 10° N 19:01:53 13° NNE 19:04:23 10° NE daylight
31 Oct - 20:40:58 10° NNW 20:46:02 42° NE 20:50:37 10° ESE daylight
31 Oct - 22:23:57 10° NW 22:28:27 31° WSW 22:32:35 10° S visible
01 Nov - 11:18:44 10° SSE 11:22:54 20° ESE 11:27:01 10° ENE daylight
01 Nov - 12:58:49 10° SW 13:04:57 84° NW 13:10:51 10° NNE daylight
01 Nov - 14:43:43 10° W 14:48:24 23° NW 14:52:54 10° NNE daylight
01 Nov - 18:17:13 10° N 18:18:37 11° NNE 18:19:58 10° NNE daylight
01 Nov - 19:58:32 10° NNW 20:03:09 29° NE 20:07:25 10° E daylight
01 Nov - 21:41:02 10° NW 21:46:05 53° WSW 21:50:40 10° SSE visible
02 Nov - 10:38:53 10° ESE 10:40:44 11° ESE 10:42:34 10° E daylight
02 Nov - 12:16:20 10° SSW 12:22:22 65° ESE 12:28:12 10° NE daylight
02 Nov - 14:00:07 10° WSW 14:05:25 31° NW 14:10:32 10° NNE daylight
02 Nov - 15:47:52 10° NW 15:49:55 12° NNW 15:51:56 10° N daylight
02 Nov - 19:16:10 10° NNW 19:20:10 21° NE 19:23:54 10° E daylight
02 Nov - 20:58:19 10° NW 21:03:35 89° WSW 21:08:19 10° SSE daylight
02 Nov - 22:43:11 10° WNW 22:45:12 12° WSW 22:47:08 10° SW visible
03 Nov - 11:34:14 10° S 11:39:55 41° ESE 11:45:24 10° NE daylight
03 Nov - 13:16:48 10° WSW 13:22:35 44° NW 13:28:06 10° NNE daylight
03 Nov - 15:03:29 10° WNW 15:06:40 15° NNW 15:09:46 10° N daylight
03 Nov - 18:33:53 10° N 18:37:04 16° NNE 18:40:05 10° ENE daylight
03 Nov - 20:15:45 10° NNW 20:20:56 56° NE 20:25:37 10° SE daylight
03 Nov - 21:59:12 10° WNW 22:03:01 22° WSW 22:06:36 10° SSW visible
04 Nov - 10:52:36 10° SSE 10:57:33 26° ESE 11:02:22 10° NE daylight
04 Nov - 12:33:46 10° SW 12:39:50 65° NW 12:45:37 10° NNE daylight
04 Nov - 14:19:24 10° WNW 14:23:31 19° NNW 14:27:30 10° NNE daylight
04 Nov - 17:51:42 10° N 17:53:51 12° NNE 17:55:56 10° NE daylight
04 Nov - 19:33:16 10° NNW 19:38:09 36° NE 19:42:36 10° ESE daylight
04 Nov - 21:16:03 10° NW 21:20:45 37° WSW 21:25:02 10° S visible
05 Nov - 10:11:41 10° SE 10:15:17 16° ESE 10:18:49 10° ENE visible
05 Nov - 11:51:04 10° SSW 11:57:11 85° ESE 12:03:03 10° NE daylight
05 Nov - 13:35:36 10° W 13:40:29 25° NW 13:45:11 10° NNE daylight
05 Nov - 15:24:17 10° NNW 15:25:11 10° NNW 15:26:05 10° N daylight
05 Nov - 17:10:10 10° N 17:10:34 10° NNE 17:10:58 10° NNE daylight
05 Nov - 18:50:52 10° NNW 18:55:14 25° NE 18:59:17 10° E daylight
05 Nov - 20:33:13 10° NW 20:38:20 64° WSW 20:42:57 10° SSE daylight
